Location: Gandikunta
(16.3784°N, 80.8378°E)
Time: 22:17:30
(UTC+00:00)

Cosmos 2228 - Pass Details

Date: 19 May 2025
Orbit: 566 x 594 km, 82.5° (Epoch: 18 June)

Event Time Altitude Azimuth Distance (km) Brightness Sun altitude
Rises 13:15:42 0° 179° (S) 2,813 6.2 -4.0°
Reaches altitude 10° 13:17:54 10° 177° (S) 1,916 5.3 -4.5°
Maximum altitude 13:22:07 70° 94° (E) 633 2.9 -5.5°
Drops below altitude 10° 13:26:21 10° 10° (N) 1,924 5.8 -6.4°
Sets 13:28:34 0° 8° (N) 2,825 6.6 -6.9°
